Date,TemperatureHighF,TemperatureAvgF,TemperatureLowF,DewpointHighF,DewpointAvgF,DewpointLowF,HumidityHigh,HumidityAvg,HumidityLow,PressureMaxIn,PressureMinIn,WindSpeedMaxMPH,WindSpeedAvgMPH,GustSpeedMaxMPH,PrecipitationSumIn
2013-1-1,52.6,47.4,42.7,42.6,37.1,32.9,90,68,49,30.12,30.05,18,5,20,0.01
2013-1-2,55.9,48.1,42.3,39.9,37.0,33.2,84,67,43,30.08,29.98,12,3,13,0.00
2013-1-3,54.5,47.3,42.4,42.0,39.3,36.3,87,74,59,30.12,30.01,12,2,12,0.01
2013-1-4,56.8,49.3,44.6,40.4,38.7,36.6,81,68,49,30.14,30.02,12,2,12,0.00
2013-1-5,53.7,48.9,43.7,49.0,45.1,39.6,96,87,77,30.10,29.90,14,1,16,0.01
2013-1-6,52.2,48.1,44.5,47.9,44.3,42.6,94,87,73,30.05,29.89,15,2,16,0.00
2013-1-7,44.5,44.1,43.4,42.8,42.4,41.7,94,94,94,30.04,30.03,0,0,1,0.00
2013-1-8,58.1,52.7,48.2,49.4,47.0,44.9,92,81,69,30.06,29.98,8,1,9,0.01
2013-1-9,52.9,49.0,45.8,50.6,44.7,38.3,94,85,73,30.00,29.86,19,3,20,0.03
2013-1-10,50.8,46.6,43.6,39.4,36.7,33.9,78,69,56,30.05,29.93,17,4,19,0.03
2013-1-11,51.2,46.7,44.0,43.2,37.8,32.0,83,71,60,30.11,29.98,19,3,20,0.01
2013-1-12,50.3,44.3,37.9,39.0,34.1,25.5,89,69,39,30.10,30.00,9,1,10,0.02
2013-1-13,50.2,43.2,36.8,37.7,29.8,18.2,80,61,33,30.12,30.03,16,2,22,0.01
2013-1-14,50.8,44.4,39.1,30.0,20.0,16.2,50,38,30,30.25,30.07,24,5,29,0.00
2013-1-16,56.5,51.5,46.8,39.3,36.9,34.8,68,58,47,30.21,30.10,10,2,10,0.01
2013-1-17,60.4,51.5,44.3,42.1,37.5,33.7,84,61,42,30.11,29.99,13,4,14,0.01
2013-1-18,62.4,54.1,48.4,39.4,36.3,31.8,70,52,34,30.07,29.98,14,4,16,0.01
2013-1-19,61.7,53.9,47.2,39.2,36.2,31.4,70,52,36,30.09,30.00,14,3,15,0.00
2013-1-20,62.2,54.0,47.4,40.4,35.1,30.8,71,50,32,30.07,29.98,13,3,15,0.01
2013-1-21,61.9,53.6,46.7,41.0,38.2,34.8,70,57,43,30.03,29.92,13,4,15,0.01
2013-1-23,56.1,51.8,50.2,49.5,48.0,45.6,94,87,70,29.93,29.85,9,2,10,0.01
2013-1-24,58.2,53.6,49.9,52.3,50.3,48.2,94,89,81,30.04,29.91,10,2,12,0.01
2013-1-25,64.3,56.1,51.7,55.5,52.2,49.6,95,87,71,30.04,29.89,10,2,10,0.01
2013-1-26,55.0,51.4,48.8,50.4,46.5,42.9,97,84,71,29.94,29.86,20,5,22,0.00
2013-1-27,53.9,49.0,44.5,44.5,40.5,36.0,81,73,58,30.03,29.92,15,3,17,0.01
2013-1-28,55.3,49.1,46.7,45.8,41.1,38.8,88,74,64,30.10,30.01,14,3,20,0.00
2013-1-29,50.2,49.2,48.1,46.8,46.3,45.8,93,90,87,30.15,30.13,8,2,8,0.01
2013-1-30,62.7,51.0,44.5,49.8,46.2,42.5,93,85,51,30.19,30.11,11,1,12,0.01
2013-1-31,63.2,52.9,46.7,48.7,45.9,43.4,90,78,56,30.13,30.02,11,2,12,0.00
2013-2-1,65.3,54.3,48.4,49.0,46.8,44.3,96,78,51,30.08,29.96,13,3,14,0.01
2013-2-2,55.1,50.2,48.3,49.8,47.6,45.1,96,91,82,30.15,30.07,11,2,11,0.01
2013-2-3,55.3,49.0,47.8,45.6,43.9,42.1,90,83,70,30.11,30.06,8,1,9,0.00
2013-2-4,49.0,47.7,47.0,47.0,45.5,44.5,93,92,90,29.96,29.93,9,2,9,0.01
2013-2-5,53.9,49.9,47.4,49.5,45.9,42.4,93,86,80,30.00,29.92,16,4,17,0.00
2013-2-6,55.1,48.4,41.3,48.4,44.2,39.0,93,86,69,30.05,29.99,14,2,18,0.01
2013-2-7,53.9,48.6,43.7,48.0,44.6,40.4,96,87,68,30.02,29.84,12,2,14,0.00
2013-2-8,52.5,47.5,42.0,45.1,40.3,28.1,94,78,41,29.87,29.79,17,3,17,0.01
2013-2-9,55.7,48.9,41.4,42.4,37.0,24.7,87,66,31,29.92,29.84,9,1,11,0.00
2013-2-10,49.7,47.6,46.0,46.0,44.8,43.3,93,91,87,29.92,29.90,7,1,7,0.00
2013-2-11,62.3,51.2,43.4,48.6,40.3,28.2,94,70,29,30.09,29.92,12,3,14,0.01
2013-2-12,58.6,49.3,44.1,47.5,45.3,39.7,95,87,51,30.21,30.09,10,2,11,0.00
2013-2-13,53.1,48.4,45.6,49.4,46.6,44.3,96,93,85,30.20,30.08,10,2,11,0.00
2013-2-14,65.0,53.5,46.3,52.0,46.4,43.8,100,79,50,30.09,30.01,11,2,12,0.01
2013-2-15,53.7,53.5,53.3,46.9,46.8,46.6,78,78,78,30.06,30.06,0,0,1,0.00
2013-2-16,65.7,55.8,48.9,51.5,47.2,44.7,94,74,52,30.06,29.91,13,3,14,0.00
2013-2-17,56.6,50.5,45.0,47.8,45.9,42.8,94,85,66,29.92,29.84,10,2,12,0.00
2013-2-18,52.2,48.8,47.4,45.9,42.8,38.5,93,80,69,29.90,29.82,16,5,17,0.01
2013-2-19,48.5,46.4,42.2,45.1,41.6,36.5,93,84,67,29.83,29.61,28,4,28,0.00
2013-2-20,49.6,48.4,46.7,42.9,42.2,40.5,81,79,76,29.92,29.85,15,4,16,0.00
2013-2-21,55.7,49.5,43.3,45.2,41.2,33.5,90,74,45,30.02,29.90,14,3,16,0.00
2013-2-22,55.1,48.8,43.0,47.3,44.3,40.4,94,85,64,30.11,30.02,18,3,18,0.00
2013-2-23,54.3,50.9,46.7,48.9,41.3,28.0,95,71,39,30.12,30.02,17,4,19,0.00
2013-2-24,52.3,50.9,49.4,28.5,25.7,22.8,42,37,32,30.09,30.05,14,5,19,0.00
2013-2-25,55.1,50.7,44.7,48.8,45.6,42.9,94,83,71,30.12,30.03,14,3,16,0.00
2013-2-26,59.4,50.3,43.8,45.3,40.7,27.0,92,73,30,30.07,30.00,13,3,18,0.00
2013-2-27,59.2,50.5,43.6,49.8,45.9,41.4,94,85,65,30.22,30.06,12,2,13,0.00
2013-2-28,57.2,51.3,48.5,52.1,49.4,47.3,97,93,83,30.31,30.21,12,3,13,0.00
2013-3-1,48.5,47.9,46.8,47.5,47.0,45.9,97,97,97,30.28,30.27,1,0,3,0.00
2013-3-2,67.0,54.7,50.1,52.5,50.2,48.6,96,86,59,30.08,29.93,13,3,15,0.00
2013-3-3,54.4,50.5,48.2,51.2,48.0,45.3,96,92,86,29.96,29.91,16,5,17,0.00
2013-3-4,52.2,48.3,46.4,45.7,44.5,42.7,93,87,76,30.00,29.91,15,3,15,0.00
2013-3-5,56.1,49.8,45.1,47.4,43.5,41.1,91,79,66,29.92,29.68,31,7,32,0.00
2013-3-6,51.5,50.3,48.9,49.3,47.3,45.1,93,90,85,29.82,29.69,28,9,32,0.00
2013-3-7,54.2,49.9,47.8,46.1,44.5,39.2,93,82,59,29.80,29.72,12,2,14,0.00
2013-3-8,53.2,49.0,44.5,47.1,45.0,42.8,95,86,78,29.90,29.69,25,4,25,0.00
2013-3-9,59.1,50.4,42.8,49.7,45.0,40.4,93,82,64,30.16,29.90,12,2,14,0.00
2013-3-10,59.5,51.2,45.2,51.7,47.6,43.8,96,88,67,30.20,30.11,11,2,12,0.00
2013-3-11,62.6,51.5,45.7,50.8,47.6,44.3,96,87,59,30.12,29.97,11,2,13,0.00
2013-3-13,70.3,53.3,45.3,56.1,49.8,44.7,98,89,58,30.01,29.92,12,3,12,0.00
2013-3-14,54.2,49.4,46.5,51.2,47.9,45.9,99,95,87,30.04,29.94,14,4,16,0.00
2013-3-15,59.9,51.9,47.7,52.1,49.1,46.3,96,90,74,29.99,29.90,13,3,15,0.00
2013-3-16,59.2,51.9,48.0,52.2,48.3,46.8,98,88,70,29.98,29.89,20,4,25,0.00
2013-3-17,58.8,52.3,47.1,48.6,45.8,43.7,91,79,64,30.01,29.91,14,3,17,0.00
2013-3-19,57.5,51.3,47.4,51.1,47.6,44.4,94,87,71,29.99,29.91,14,2,15,0.00
2013-3-20,58.2,52.7,49.2,52.8,49.7,45.1,98,90,72,30.00,29.91,17,3,18,0.00
2013-3-21,56.7,50.1,42.5,48.6,44.7,39.9,98,83,68,30.00,29.87,14,3,16,0.00
2013-3-22,57.1,51.0,42.8,45.8,42.5,31.8,93,75,41,29.98,29.88,13,2,17,0.00
2013-3-23,60.8,50.0,43.6,46.1,40.7,26.3,93,75,27,29.99,29.93,9,1,10,0.00
2013-3-24,48.2,48.2,48.1,45.9,45.7,45.5,92,91,91,29.87,29.86,10,5,10,0.00
2013-3-25,53.1,49.0,46.6,45.8,44.9,44.1,92,86,74,29.90,29.78,18,4,18,0.00
2013-3-26,55.2,50.7,47.9,49.2,46.7,44.4,94,86,78,29.87,29.81,14,4,16,0.00
2013-3-27,56.2,52.3,49.3,52.4,50.2,47.3,98,93,83,29.88,29.81,9,2,12,0.00
2013-3-28,58.9,54.5,52.1,56.2,52.6,50.4,99,94,83,29.95,29.86,15,2,15,0.00
2013-3-29,71.3,54.6,50.2,55.8,51.3,49.0,98,90,56,29.94,29.89,15,3,17,0.00
2013-3-31,62.6,56.5,52.9,56.6,53.5,51.7,97,90,73,29.92,29.86,22,4,24,0.00
2013-4-1,59.2,54.9,51.5,55.0,52.9,50.6,98,93,84,30.02,29.90,12,2,14,0.00
2013-4-2,54.7,51.6,49.2,51.8,50.1,48.3,98,95,89,30.06,29.96,13,3,15,0.00
2013-4-3,65.5,51.9,47.7,55.7,49.5,46.8,98,93,66,30.00,29.86,15,3,15,0.00
2013-4-5,60.2,54.5,51.7,56.2,53.3,50.8,99,96,82,30.06,29.97,15,3,15,0.00
2013-4-6,58.0,54.1,51.8,56.1,52.8,50.5,99,96,89,30.06,30.00,16,4,20,0.00
2013-4-7,58.4,54.5,52.3,55.2,51.8,48.0,96,91,79,30.04,29.72,22,5,28,0.00
2013-4-8,58.1,52.7,48.3,48.2,43.7,38.8,89,72,55,29.84,29.66,29,8,37,0.00
2013-4-10,63.1,55.9,51.2,53.1,50.3,46.9,94,82,66,30.04,29.92,20,4,22,0.00
2013-4-11,62.4,53.1,49.1,50.5,48.2,46.0,94,84,62,29.93,29.71,18,4,23,0.00
2013-4-12,57.1,50.8,47.3,50.4,47.3,45.3,95,88,77,29.79,29.71,16,4,19,0.00
2013-4-13,58.1,51.9,47.9,50.1,46.2,43.3,91,81,70,29.77,29.69,21,4,24,0.00
2013-4-14,49.9,47.5,45.4,43.5,41.9,40.5,85,81,71,29.79,29.76,7,1,8,0.00
2013-4-15,54.6,49.8,45.3,47.1,42.3,39.6,96,76,58,29.82,29.73,25,-129,29,0.00
2013-4-16,59.1,56.0,53.0,45.9,42.0,37.4,63,60,56,30.02,29.82,8,-988,9,0.00
2013-4-17,64.3,56.9,49.2,46.3,39.4,28.2,89,55,26,30.13,30.01,19,-149,20,0.00
2013-4-18,60.0,58.9,58.1,46.5,45.8,45.4,64,62,60,30.11,30.06,0,-999,0,0.00
2013-4-19,62.2,54.7,47.8,51.4,49.0,46.1,98,82,66,30.10,29.93,15,4,17,0.00
2013-4-20,62.7,53.5,49.0,51.4,48.5,46.4,93,84,63,29.97,29.87,15,4,16,0.00
2013-4-21,67.0,55.5,48.1,53.1,49.0,45.8,93,80,58,29.91,29.80,13,-15,16,0.00
2013-4-22,78.8,65.0,51.8,54.8,49.7,40.8,88,60,29,29.83,29.78,12,-495,14,0.00
2013-4-23,60.4,52.7,49.0,50.0,48.1,46.7,93,85,64,29.82,29.75,16,-80,19,0.00
2013-4-24,60.3,56.6,52.1,50.2,48.3,44.4,91,75,64,29.80,29.70,14,-570,15,0.00
2013-4-25,61.2,54.3,51.8,53.9,50.4,46.1,95,87,70,29.99,29.80,13,-72,17,0.00
2013-4-26,55.7,51.9,49.2,50.3,48.1,46.8,92,87,80,30.09,29.98,17,4,19,0.00
2013-4-27,49.5,49.3,49.1,47.3,47.1,47.0,93,93,92,30.08,30.07,8,3,11,0.00
2013-4-28,59.2,53.3,49.1,52.6,49.4,47.1,93,87,77,29.94,29.75,13,4,14,0.00
2013-4-29,65.6,57.1,51.7,56.3,51.4,48.4,94,82,69,29.77,29.64,19,4,19,0.00
2013-4-30,61.9,57.5,50.1,51.9,48.7,46.9,91,73,63,29.73,29.65,14,-534,17,0.00
2013-5-1,67.3,59.0,52.2,51.6,49.1,38.8,93,71,38,29.94,29.71,14,-481,15,0.00
2013-5-2,65.9,63.8,60.4,50.7,45.6,40.1,58,52,44,29.95,29.94,8,-498,10,0.00
2013-5-3,70.8,58.7,52.0,54.2,50.7,43.0,93,76,52,29.94,29.67,14,3,16,0.00
2013-5-4,64.7,59.6,52.8,53.6,51.7,42.4,96,76,64,29.67,29.46,28,-569,28,0.00
2013-5-5,63.7,58.6,53.1,53.4,50.6,48.8,87,75,65,29.67,29.47,28,6,30,0.00
2013-5-6,66.4,60.3,56.2,54.0,52.4,50.7,88,76,58,29.83,29.67,12,-337,14,0.00
2013-5-7,64.1,58.1,53.0,62.9,53.9,43.5,96,87,70,29.92,29.82,14,-98,14,0.00
2013-5-8,57.2,53.7,51.9,52.3,50.8,49.3,96,90,82,30.01,29.91,13,4,15,0.00
2013-5-9,62.0,57.8,51.6,51.8,50.2,48.7,92,77,67,30.05,29.97,18,-479,20,0.00
2013-5-10,61.2,59.4,53.2,51.7,50.6,44.9,92,73,68,30.06,29.99,17,-838,17,0.00
2013-5-11,52.9,51.6,50.8,51.2,50.4,49.8,97,96,94,29.99,29.94,12,4,13,0.00
2013-5-12,62.7,54.9,51.8,55.0,52.9,50.9,98,93,74,30.03,29.90,16,-24,20,0.00
2013-5-13,62.6,57.8,51.3,54.7,52.3,46.8,97,83,72,29.97,29.82,12,-572,15,0.00
2013-5-14,62.6,60.4,51.4,53.4,51.4,42.3,94,72,66,29.87,29.78,14,-901,17,0.00
2013-5-15,61.4,58.3,51.0,50.9,49.3,40.3,91,73,66,29.93,29.86,17,-692,18,0.00
2013-5-16,62.3,57.5,52.9,55.9,53.3,45.6,98,87,72,29.90,29.84,15,-385,17,0.00
2013-5-17,62.9,61.2,52.1,53.7,51.7,49.1,90,71,67,29.95,29.84,13,-985,14,0.00
2013-5-18,62.4,58.0,49.6,53.0,50.8,39.0,93,78,67,30.00,29.93,20,-213,24,0.00
2013-5-19,65.5,57.0,51.1,54.4,51.0,48.8,93,81,61,29.98,29.87,15,4,15,0.00
2013-5-20,63.9,55.6,51.2,54.1,50.9,48.7,92,85,71,29.88,29.80,16,6,20,0.00
2013-5-21,58.6,53.9,50.4,51.6,48.2,42.4,93,82,72,29.87,29.77,24,7,28,0.00
2013-5-22,61.8,59.6,50.3,48.1,45.0,36.4,75,59,54,29.89,29.77,10,-934,15,0.00
2013-5-23,61.4,56.1,48.6,48.0,46.1,42.9,85,70,58,29.88,29.78,19,-299,19,0.00
2013-5-24,61.4,60.9,60.3,47.2,46.9,46.5,61,60,60,29.85,29.82,0,-999,0,0.00
2013-5-25,61.8,60.6,59.2,51.2,48.7,46.6,69,65,63,29.92,29.85,0,-999,0,0.00
2013-5-26,61.9,59.5,52.7,54.2,51.8,43.5,97,76,67,30.00,29.91,16,-786,17,0.00
2013-5-27,61.1,56.5,51.9,54.9,52.5,50.2,98,88,71,30.00,29.86,14,-371,18,0.09
2013-5-28,60.2,55.5,52.5,57.5,53.9,51.7,99,94,84,29.87,29.79,18,5,20,0.01
2013-5-29,53.7,53.5,53.3,52.5,52.0,51.7,96,95,94,29.82,29.80,12,5,13,0.00
2013-5-30,62.0,58.5,49.5,51.7,49.8,47.5,94,73,68,29.86,29.81,18,-343,20,0.00
2013-5-31,63.4,60.5,50.9,53.6,50.4,48.0,91,70,65,29.89,29.79,15,-822,17,0.00
2013-6-1,61.9,59.0,52.7,52.4,50.0,48.9,90,73,65,29.80,29.65,22,-539,24,0.00
2013-6-2,61.9,58.9,50.9,51.6,50.5,40.8,95,75,67,29.66,29.56,20,-748,20,0.00
2013-6-3,52.1,51.8,51.5,50.4,50.1,49.9,95,94,94,29.60,29.59,13,6,18,0.00
2013-6-4,61.4,55.7,52.9,54.2,52.3,44.4,94,89,71,29.84,29.72,19,-17,19,0.00
2013-6-5,60.4,54.3,52.0,52.7,50.9,49.7,94,89,71,29.87,29.81,17,-57,20,0.00
2013-6-6,60.6,53.4,51.0,52.9,51.1,49.8,97,92,73,29.83,29.74,19,-38,19,0.00
2013-6-7,61.7,58.3,51.9,54.4,52.2,46.0,96,81,73,29.77,29.61,14,-634,16,0.00
2013-6-8,61.6,53.6,51.4,53.2,51.5,50.3,97,93,73,29.63,29.60,12,-78,14,0.00
2013-6-9,56.6,55.7,55.1,55.0,54.4,53.8,97,96,95,29.75,29.72,17,5,17,0.00
2013-6-10,62.8,57.4,54.2,55.7,54.0,52.9,98,89,75,29.82,29.67,20,-41,22,0.00
2013-6-11,63.6,62.1,54.5,55.7,54.0,52.4,93,75,70,29.86,29.76,8,-931,9,0.00
2013-6-12,64.3,61.9,52.2,55.1,52.8,42.7,92,73,68,29.86,29.77,11,-898,12,0.00
2013-6-13,65.8,61.8,56.0,53.1,51.3,49.9,81,69,62,29.97,29.86,16,-703,20,0.00
2013-6-14,63.6,61.5,52.5,55.5,51.7,49.6,91,70,67,29.86,29.80,12,-740,12,0.00
2013-6-15,54.7,52.9,51.9,51.5,50.6,49.9,94,92,89,29.87,29.82,22,6,22,0.00
2013-6-16,60.2,54.4,51.0,54.5,51.3,49.3,95,89,81,29.97,29.86,20,6,22,0.00
2013-6-17,62.9,57.0,50.8,56.5,53.1,49.6,97,88,75,29.96,29.90,20,-317,20,0.00
2013-6-18,61.1,56.8,53.3,54.5,52.7,49.7,97,87,74,29.92,29.86,17,-305,22,0.00
2013-6-19,62.1,57.0,52.3,53.6,51.4,49.1,95,82,68,29.93,29.86,23,6,24,0.00
2013-6-21,60.1,56.3,50.6,53.7,51.7,49.2,95,85,74,29.87,29.79,18,6,21,0.00
2013-6-22,63.4,56.3,50.9,56.0,52.1,48.9,96,86,74,29.81,29.72,21,6,23,0.00
2013-6-23,59.6,55.6,52.9,59.2,55.0,51.9,99,98,96,29.76,29.68,17,6,18,0.02
2013-6-24,57.8,55.2,53.0,57.2,54.7,52.7,99,99,97,29.77,29.66,10,2,11,0.02
2013-6-25,67.3,60.5,56.6,63.6,59.7,56.0,99,98,88,29.85,29.74,21,4,25,0.24
2013-6-26,65.0,61.8,58.7,61.0,59.5,57.5,96,92,86,29.91,29.86,12,4,12,0.04
2013-6-27,67.9,60.1,54.9,60.7,57.5,54.3,99,92,77,29.96,29.88,13,3,14,0.00
2013-6-28,63.2,59.6,55.6,59.4,56.8,54.6,98,91,82,29.90,29.77,17,5,17,0.00
2013-6-29,66.7,61.6,57.1,58.7,56.6,54.7,92,84,74,29.78,29.67,21,7,23,0.00
2013-6-30,62.4,59.1,56.2,57.8,56.0,54.4,95,90,85,29.72,29.63,20,9,20,0.00
2013-7-1,57.2,55.8,55.2,55.1,54.5,54.1,97,96,93,29.71,29.68,17,5,17,0.00
2013-7-2,62.2,57.6,54.9,58.8,56.0,54.0,98,95,87,29.78,29.68,19,5,22,0.00
2013-7-3,66.2,59.3,56.2,61.1,57.3,55.6,99,93,79,29.78,29.63,15,4,16,0.00
2013-7-4,64.5,60.7,56.6,60.1,56.6,52.3,98,87,74,29.65,29.54,23,6,24,0.00
2013-7-5,56.5,54.9,53.6,52.7,52.3,51.8,94,91,87,29.62,29.57,16,6,20,0.00
2013-7-6,58.9,55.7,53.3,54.2,52.8,51.4,94,90,84,29.68,29.61,23,7,24,0.00
2013-7-7,60.6,56.6,54.3,55.5,53.6,52.3,94,90,82,29.72,29.64,18,6,20,0.00
2013-7-8,59.9,56.5,53.4,55.5,53.7,52.3,97,91,84,29.85,29.72,17,5,19,0.00
2013-7-9,59.4,54.6,51.6,58.1,53.2,51.0,98,95,85,29.90,29.84,13,3,15,0.00
2013-7-10,58.9,56.0,52.9,55.5,53.6,51.7,97,92,87,29.85,29.78,19,6,23,0.00
2013-7-11,57.1,53.9,51.5,53.4,52.0,50.6,97,94,87,29.82,29.76,17,5,20,0.00
2013-7-12,57.3,54.9,53.1,54.0,52.4,51.3,95,92,87,29.82,29.76,18,6,20,0.00
2013-7-13,59.7,55.9,53.8,55.1,53.1,52.0,95,91,83,29.84,29.76,19,7,21,0.00
2013-7-14,57.2,54.5,52.1,53.6,52.4,51.2,97,93,88,29.84,29.78,16,5,18,0.00
2013-7-15,58.6,54.4,50.7,55.3,52.7,50.1,98,94,87,29.79,29.71,17,5,18,0.00
2013-7-16,61.0,56.8,53.3,57.0,54.6,51.6,97,93,82,29.88,29.72,15,4,16,0.01
2013-7-17,61.8,58.1,56.1,56.8,55.4,53.6,97,91,83,29.96,29.88,16,4,17,0.00
2013-7-18,54.1,53.9,53.8,53.1,52.9,52.7,97,96,96,29.82,29.81,12,4,13,0.00
2013-7-19,57.9,54.6,53.0,55.3,53.0,51.9,97,95,90,29.81,29.71,21,6,23,0.00
2013-7-20,56.8,53.4,51.7,54.4,52.0,50.8,98,95,89,29.72,29.62,20,6,22,0.00
2013-7-21,56.7,54.0,52.3,54.3,52.6,51.4,98,95,90,29.75,29.63,19,6,19,0.00
2013-7-22,55.2,54.5,53.6,54.6,53.9,52.7,100,98,97,29.76,29.74,11,4,12,0.00
2013-7-23,62.2,58.1,55.1,59.6,56.2,54.5,98,94,84,29.87,29.79,15,4,15,0.00
2013-7-24,60.7,56.3,53.7,57.2,55.0,52.8,99,96,87,29.86,29.78,16,4,16,0.00
2013-7-25,58.2,54.5,52.3,55.3,53.3,51.7,99,96,90,29.89,29.79,18,5,18,0.00
2013-7-26,59.5,55.0,52.8,56.7,54.0,52.2,99,97,90,29.96,29.87,19,4,19,0.00
2013-7-27,57.9,56.3,54.5,55.9,54.7,53.6,97,95,92,29.82,29.73,16,6,18,0.00
2013-7-28,57.3,54.9,53.5,54.9,53.5,52.2,100,95,90,29.74,29.68,20,6,20,0.01
2013-7-29,59.4,56.5,54.4,56.1,54.1,52.6,94,92,87,29.87,29.70,22,7,25,0.00
2013-7-30,59.1,56.0,53.0,55.3,53.7,51.5,96,92,87,29.96,29.87,17,5,20,0.00
2013-7-31,54.2,53.5,52.4,53.2,52.5,51.1,97,97,96,29.94,29.90,15,5,17,0.00
2013-8-1,61.0,57.4,54.3,56.4,54.2,52.3,95,89,84,29.94,29.81,19,6,22,0.00
2013-8-2,58.7,55.0,51.8,55.2,52.9,50.9,97,93,87,29.84,29.77,20,5,20,0.00
2013-8-3,59.1,54.6,52.0,55.2,52.8,50.8,98,94,86,29.84,29.78,19,6,19,0.00
2013-8-4,56.9,53.8,52.4,53.7,52.5,51.6,98,96,87,29.87,29.82,17,4,18,0.00
2013-8-5,57.6,55.0,52.9,54.2,52.5,51.4,96,92,87,29.88,29.81,18,5,18,0.01
2013-8-6,60.3,56.6,53.6,56.8,54.2,52.1,97,92,84,29.90,29.83,17,4,19,0.00
2013-8-7,62.6,58.8,55.8,57.9,56.4,54.9,97,92,81,29.96,29.88,18,4,19,0.01
2013-8-8,64.5,58.5,57.1,58.3,57.0,55.8,98,95,76,29.89,29.83,9,2,13,0.07
2013-8-9,61.8,58.6,55.2,58.0,56.1,54.5,98,92,85,29.85,29.80,15,5,15,0.03
2013-8-10,62.1,58.4,56.1,57.9,56.3,54.7,97,93,85,29.91,29.84,16,4,18,0.00
2013-8-11,58.6,56.0,54.2,56.0,54.8,53.6,98,96,90,29.88,29.81,15,4,17,0.00
2013-8-12,61.4,56.3,54.5,57.3,55.1,53.6,98,96,86,29.86,29.80,16,4,18,0.00
2013-8-13,63.7,58.8,55.7,58.2,55.5,53.9,95,89,80,29.84,29.78,17,4,18,0.00
2013-8-14,64.7,58.7,54.3,60.2,56.5,53.1,97,93,83,29.84,29.76,16,5,19,0.00
2013-8-15,66.5,61.2,58.4,62.9,60.0,57.8,98,96,88,29.82,29.76,17,4,17,0.00
2013-8-16,58.6,58.3,57.3,58.2,57.7,56.6,99,98,98,29.82,29.79,11,3,13,0.00
2013-8-17,65.8,59.5,56.6,61.3,57.4,55.4,98,93,84,29.84,29.71,20,6,20,0.00
2013-8-18,63.1,58.3,55.9,60.8,56.8,54.9,98,95,87,29.74,29.64,20,4,20,0.00
2013-8-19,62.1,58.4,55.3,58.8,57.0,54.7,99,95,87,29.77,29.65,16,4,18,0.00
2013-8-20,62.9,59.0,56.5,58.9,57.4,55.9,99,95,86,29.76,29.69,19,6,22,0.00
2013-8-21,60.0,59.8,59.4,56.4,56.1,55.6,88,88,87,29.78,29.76,8,2,10,0.00
2013-8-22,64.8,60.7,57.8,57.0,55.8,54.9,91,84,75,29.83,29.75,17,4,18,0.00
2013-8-23,60.2,57.8,55.9,56.9,55.2,53.8,94,92,88,29.78,29.67,17,4,18,0.00
2013-8-24,63.2,58.9,55.7,59.7,56.8,54.8,97,93,85,29.76,29.68,18,6,20,0.00
2013-8-25,65.5,61.4,59.2,63.6,60.4,58.3,99,97,91,29.79,29.74,11,2,12,0.00
2013-8-26,63.8,60.9,58.0,58.9,57.7,56.5,95,90,83,29.83,29.75,16,4,18,0.02
2013-8-27,63.4,58.2,54.1,60.6,57.0,53.5,98,96,90,29.75,29.69,16,5,17,0.00
2013-8-28,65.8,60.7,56.9,64.0,59.8,56.6,99,97,90,29.79,29.70,14,4,15,0.00
2013-8-29,66.8,62.0,59.6,63.3,60.7,59.1,100,96,86,29.92,29.79,13,2,16,0.01
2013-8-30,61.0,59.9,59.3,60.1,59.2,58.7,99,98,97,29.88,29.85,8,2,10,0.00
2013-8-31,62.4,58.8,55.9,60.0,57.8,55.3,99,97,91,29.84,29.75,17,5,18,0.00
2013-9-1,64.1,59.4,55.8,61.6,58.2,54.9,98,96,91,29.81,29.75,15,4,16,0.00
2013-9-2,69.8,63.5,60.0,64.6,61.6,59.4,99,94,82,29.81,29.74,15,4,17,0.00
2013-9-3,66.8,61.6,58.1,62.4,59.9,57.6,100,95,84,29.86,29.78,19,5,21,0.00
2013-9-4,66.8,60.9,59.2,62.2,59.3,58.3,97,95,83,29.89,29.81,12,3,17,0.00
2013-9-5,64.9,62.4,58.8,60.1,57.6,55.8,91,85,81,29.83,29.79,20,4,23,0.01
2013-9-6,78.0,65.4,55.2,61.2,56.3,52.7,95,75,43,29.83,29.68,13,2,15,0.00
2013-9-7,75.2,63.0,55.5,61.5,57.1,54.3,98,82,59,29.72,29.67,17,3,19,0.00
2013-9-8,60.9,56.9,54.2,59.3,56.1,53.6,99,97,92,29.73,29.63,14,4,16,0.00
2013-9-9,60.2,56.2,53.3,59.2,55.5,53.0,99,98,91,29.67,29.58,15,3,18,0.00
2013-9-10,61.9,61.7,61.6,59.4,59.3,59.1,92,92,92,29.75,29.74,14,4,16,0.01
2013-9-11,65.8,62.5,60.7,59.7,58.9,57.9,93,88,80,29.85,29.74,16,4,19,0.00
2013-9-12,65.3,61.0,57.7,61.9,59.4,56.8,98,95,85,29.83,29.75,18,3,20,0.02
2013-9-13,61.6,57.5,55.0,58.3,56.2,54.1,98,95,89,29.76,29.62,18,5,22,0.01
2013-9-14,57.9,55.9,54.8,56.7,55.2,54.2,98,98,96,29.68,29.63,16,5,17,0.00
2013-9-15,66.0,63.1,60.3,59.9,58.2,56.3,97,84,76,29.73,29.68,16,4,18,0.00
2013-9-16,65.9,60.1,57.1,59.5,57.6,55.9,98,92,77,29.75,29.65,19,4,24,0.00
2013-9-17,63.9,59.8,56.1,57.2,55.9,52.4,96,87,75,29.73,29.67,24,6,24,0.00
2013-9-18,69.7,61.1,54.9,57.9,54.4,51.9,90,79,60,29.77,29.68,15,4,17,0.00
2013-9-19,57.3,55.5,54.6,54.6,53.0,51.7,93,92,90,29.70,29.62,12,4,13,0.00
2013-9-20,66.3,59.7,53.6,62.5,57.9,52.1,98,94,87,29.71,29.62,16,5,20,0.00
2013-9-21,63.7,60.5,57.3,61.3,58.7,55.6,98,94,86,29.75,29.65,21,5,21,0.47
2013-9-22,64.8,58.5,54.0,58.0,55.8,53.4,98,91,78,29.85,29.75,14,3,18,0.01
2013-9-23,68.2,61.3,58.0,62.5,58.8,56.5,98,92,81,29.81,29.79,15,3,16,0.00
2013-9-24,65.3,60.0,56.4,59.2,56.0,52.5,94,87,79,29.85,29.76,21,5,24,0.00
2013-9-25,61.9,58.2,55.2,53.6,51.6,48.0,90,79,70,29.79,29.67,22,5,23,0.00
2013-9-26,65.1,55.8,50.4,50.5,47.4,41.5,86,75,43,29.79,29.68,14,1,16,0.00
2013-9-27,72.0,62.3,54.0,51.7,47.4,38.6,89,61,31,29.94,29.87,11,2,12,0.00
2013-9-28,67.3,58.4,51.0,57.3,52.8,47.5,95,83,54,29.94,29.86,15,2,18,0.00
2013-9-29,67.3,60.4,54.7,62.1,58.0,54.1,100,92,81,29.96,29.90,12,2,12,0.00
2013-9-30,65.0,60.0,56.1,63.1,57.0,46.8,97,90,64,29.88,29.83,12,3,15,0.00
2013-10-1,64.8,58.2,53.9,54.4,52.5,49.9,95,82,64,29.86,29.76,14,3,15,0.01
2013-10-2,63.6,56.9,52.7,53.8,51.0,47.1,95,82,66,29.86,29.77,16,3,17,0.00
2013-10-3,69.0,63.9,58.1,50.3,44.1,33.3,69,51,27,29.82,29.80,26,4,26,0.00
2013-10-4,79.5,68.8,60.1,42.0,34.6,26.9,44,29,15,29.93,29.81,26,5,26,0.00
2013-10-5,83.8,69.3,59.6,43.5,35.7,24.6,53,32,12,30.03,29.92,11,2,12,0.00
2013-10-6,73.6,62.4,58.7,44.3,39.9,35.3,58,44,29,29.95,29.91,11,1,11,0.00
2013-10-7,69.3,60.1,54.2,52.0,48.0,39.2,89,66,39,29.84,29.73,15,3,15,0.00
2013-10-8,61.2,55.1,50.7,53.5,50.6,48.4,94,85,71,29.76,29.56,14,4,15,0.00
2013-10-9,63.7,55.3,49.3,50.4,48.6,45.1,92,79,51,29.56,29.47,11,2,13,0.00
2013-10-10,57.1,54.2,51.7,51.9,50.5,49.6,93,87,81,29.86,29.78,22,6,23,0.00
2013-10-11,55.3,52.0,49.6,50.5,49.3,48.1,96,91,83,29.94,29.84,12,3,14,0.00
2013-10-12,56.2,52.3,49.2,51.3,49.6,47.8,96,91,81,29.86,29.75,17,4,19,0.00
2013-10-13,56.0,53.0,51.6,52.4,50.3,49.3,93,91,84,29.91,29.76,8,1,9,0.00
2013-10-14,73.7,59.7,49.0,54.7,47.7,42.9,95,69,34,29.96,29.85,11,1,11,0.01
2013-10-15,77.2,62.7,53.3,50.3,42.9,36.0,81,52,23,29.88,29.80,11,1,12,0.00
2013-10-16,80.3,64.7,55.1,50.2,44.1,34.9,78,52,20,29.92,29.83,10,2,11,0.00
2013-10-17,74.3,63.0,52.9,51.6,47.1,38.1,92,61,30,29.91,29.82,11,3,13,0.00
2013-10-18,54.0,50.9,48.7,51.6,49.4,47.8,98,95,89,29.91,29.84,11,3,14,0.00
2013-10-19,67.7,53.0,47.2,58.2,50.0,46.6,99,91,59,29.92,29.86,16,2,16,0.00
2013-10-20,52.9,50.3,48.6,50.9,49.1,47.7,98,96,93,29.88,29.78,11,4,12,0.00
2013-10-21,52.9,50.3,49.1,51.3,49.3,48.5,98,97,91,29.86,29.78,11,2,11,0.00
2013-10-22,55.4,50.5,48.7,54.9,49.7,48.1,99,97,93,29.87,29.79,12,2,12,0.00
2013-10-23,49.6,48.6,47.8,49.0,48.2,47.4,99,99,98,29.83,29.79,9,1,9,0.00
2013-10-24,57.1,52.6,49.5,51.2,49.8,48.3,97,91,80,29.95,29.83,12,2,12,0.00
2013-10-25,62.6,54.8,48.3,53.9,50.9,46.5,95,87,73,30.02,29.92,12,2,13,0.00
2013-10-26,61.2,54.1,50.0,56.9,51.8,48.8,98,92,80,29.99,29.88,9,1,11,0.00
2013-10-27,55.3,54.3,52.3,52.1,50.8,49.3,97,88,84,29.81,29.54,25,8,26,0.01
2013-10-28,56.9,53.8,50.6,52.1,50.2,47.3,92,88,80,29.69,29.52,21,4,27,0.00
2013-10-29,58.9,54.6,50.6,52.6,50.4,46.8,94,87,70,29.90,29.69,12,2,13,0.00
2013-10-30,53.7,51.5,49.2,49.5,48.4,47.6,95,89,82,29.97,29.90,5,1,5,0.01
2013-10-31,69.0,55.4,48.4,54.4,49.8,45.0,94,83,52,30.02,29.92,9,1,10,0.00
2013-11-1,72.8,58.7,50.3,52.1,49.7,46.4,92,75,40,29.98,29.85,11,1,13,0.00
2013-11-2,55.1,51.6,49.3,51.0,49.5,48.4,100,93,83,29.87,29.85,9,2,10,0.00
2013-11-3,59.2,52.5,45.1,48.2,44.9,38.1,92,76,47,29.91,29.76,12,1,15,0.00
2013-11-4,63.6,53.3,43.7,47.4,44.0,37.7,91,72,46,29.92,29.77,14,1,16,0.00
2013-11-5,66.8,57.1,46.9,50.5,43.8,35.6,92,64,32,30.06,29.90,8,1,10,0.00
2013-11-6,53.7,52.5,50.8,50.0,46.8,42.9,92,82,67,30.06,30.04,4,0,5,0.00
2013-11-7,68.0,58.3,53.6,53.1,48.7,41.8,95,72,42,30.01,29.92,11,2,12,0.00
2013-11-8,64.4,54.8,49.8,58.6,51.2,48.8,98,89,66,29.93,29.81,15,2,15,0.00
2013-11-9,67.6,54.9,49.2,52.4,50.3,47.5,94,86,54,29.89,29.82,15,3,16,0.01
2013-11-10,54.0,53.4,51.7,51.4,50.6,49.4,94,91,89,29.96,29.87,8,1,9,0.00
2013-11-11,61.3,55.3,52.6,53.2,51.3,49.1,92,87,73,30.02,29.91,8,1,9,0.00
2013-11-12,66.3,58.5,54.9,54.4,52.5,50.8,94,81,62,30.11,29.99,9,1,9,0.00
2013-11-13,62.4,54.9,51.9,57.7,52.9,50.4,98,94,80,30.10,29.96,13,2,14,0.00
2013-11-14,53.9,53.3,52.2,50.7,49.6,48.4,90,87,82,29.77,29.73,20,6,20,0.01
2013-11-15,61.0,54.7,48.2,50.7,48.3,40.7,93,80,61,29.74,29.58,14,-148,18,0.00
2013-11-16,60.5,52.8,45.9,51.9,48.2,43.7,95,85,63,29.78,29.61,21,-37,21,0.00
2013-11-17,56.1,52.4,50.0,50.4,48.9,46.7,96,88,74,29.92,29.77,16,2,16,0.00
2013-11-18,55.4,53.4,52.7,50.7,49.9,48.8,91,88,81,29.96,29.93,9,1,10,0.01
2013-11-19,58.4,56.0,53.3,56.5,53.2,48.8,97,90,83,29.94,29.78,15,2,16,0.38
2013-11-20,57.3,55.2,51.4,56.7,54.3,49.1,99,97,92,29.78,29.68,13,3,15,0.22
2013-11-21,61.9,55.0,50.4,51.1,42.6,25.9,96,69,26,29.81,29.74,19,3,20,0.07
2013-11-22,70.1,62.2,55.1,44.6,31.3,19.5,65,35,16,29.81,29.75,16,2,17,0.05
2013-11-23,66.2,57.8,50.1,50.4,35.4,22.7,94,48,20,29.94,29.79,20,-76,23,0.03
2013-11-24,62.4,52.6,47.6,49.2,46.6,43.4,96,82,51,30.09,29.94,8,1,9,0.03
2013-11-25,62.4,53.5,47.0,48.3,45.6,43.1,92,76,53,30.16,30.09,11,1,11,0.03
2013-11-26,56.4,54.6,53.4,46.1,44.5,43.5,76,69,62,29.92,29.87,6,1,7,0.00
2013-11-27,62.9,55.9,50.4,47.9,45.8,43.8,79,69,55,29.87,29.68,11,2,12,0.00
2013-11-28,67.2,56.4,51.0,50.0,45.8,43.3,79,69,43,29.91,29.70,11,1,11,0.00
2013-11-29,66.5,53.9,48.7,53.9,48.5,43.1,95,83,46,30.05,29.91,10,1,11,0.00
2013-11-30,49.2,48.6,48.1,48.6,47.8,47.2,98,97,97,30.11,30.08,5,0,5,0.01
2013-12-1,66.7,54.5,47.2,52.7,49.6,45.4,98,85,50,30.18,30.06,9,2,10,0.01
2013-12-2,58.2,53.0,49.2,54.9,51.5,48.5,98,95,83,30.07,29.81,16,4,20,0.01
2013-12-3,54.9,50.9,48.2,54.2,40.0,26.1,98,68,41,29.80,29.69,24,4,24,0.00
2013-12-4,48.3,44.0,40.8,33.5,29.2,26.1,72,56,44,29.92,29.79,5,0,7,0.00
2013-12-5,50.4,43.1,35.8,35.8,29.0,17.7,83,60,29,30.00,29.92,11,1,12,0.00
2013-12-6,51.4,45.7,37.9,49.1,39.1,29.6,94,79,48,30.03,29.76,26,4,28,0.12
2013-12-7,48.3,44.3,39.4,46.6,32.8,27.3,94,65,46,30.09,29.77,18,4,20,0.13
2013-12-9,50.8,42.6,34.2,33.1,23.7,15.0,72,50,25,30.25,30.15,17,3,21,0.00
2013-12-10,52.2,45.3,39.7,33.1,31.2,26.9,75,59,40,30.24,30.05,13,3,16,0.00
2013-12-11,55.4,47.9,41.5,37.2,33.9,28.2,77,60,38,30.08,30.01,16,3,18,0.00
2013-12-12,58.9,49.4,44.8,45.1,37.9,34.8,87,65,41,30.11,30.01,10,3,12,0.00
2013-12-13,49.5,48.9,48.3,47.6,46.7,44.6,96,92,86,30.16,30.10,10,2,12,0.01
2013-12-14,60.7,50.9,43.6,47.1,41.9,37.3,97,74,43,30.23,30.15,14,2,16,0.00
2013-12-15,60.9,52.8,47.2,42.1,39.8,38.4,77,62,44,30.20,30.07,13,3,13,0.00
2013-12-16,66.2,56.8,50.5,42.0,39.0,36.0,69,52,33,30.07,29.95,14,4,14,0.00
2013-12-17,56.1,54.5,53.4,40.7,39.7,38.1,62,58,51,29.98,29.87,9,2,10,0.00
2013-12-18,53.4,50.8,48.5,49.0,45.3,40.1,95,82,62,29.87,29.61,19,3,20,0.00
2013-12-19,55.8,51.2,45.9,46.6,39.9,25.1,89,67,34,29.78,29.57,17,3,19,0.00
2013-12-20,55.7,48.8,40.4,46.6,35.7,22.1,90,62,28,29.86,29.77,10,1,11,0.00
2013-12-21,57.0,50.8,45.1,51.3,46.9,43.1,94,87,76,29.90,29.81,8,1,9,0.00
2013-12-22,56.4,53.1,50.2,46.2,43.7,41.1,85,71,62,30.12,30.07,5,0,5,0.01
2013-12-23,62.6,53.3,45.9,46.1,42.4,40.7,90,68,47,30.23,30.12,9,1,11,0.00
2013-12-24,66.0,54.1,48.3,47.1,43.6,40.9,86,69,47,30.18,30.04,8,1,8,0.00
2013-12-25,63.2,55.0,48.1,44.7,42.6,40.9,81,64,47,30.12,30.03,16,2,18,0.00
2013-12-26,53.2,50.7,48.7,43.6,42.4,41.5,79,73,65,30.08,30.05,11,3,11,0.00
2013-12-27,59.3,54.6,48.3,42.7,40.9,39.1,74,60,50,30.06,29.96,12,2,14,0.00
2013-12-28,59.1,50.5,44.6,46.5,41.0,36.2,90,71,44,29.99,29.88,7,0,7,0.00
2013-12-29,65.8,55.9,47.8,39.7,32.1,22.0,72,43,20,30.01,29.92,18,2,24,0.00
2013-12-30,60.6,52.0,48.7,43.6,39.4,37.1,69,62,48,30.09,30.00,10,2,12,0.00
2013-12-31,57.9,51.5,46.8,47.7,45.4,41.5,93,81,56,30.09,30.00,8,1,8,0.00
2014-1-1,62.2,51.0,45.2,49.4,44.2,38.2,92,79,42,30.06,29.97,9,1,10,0.00
2014-1-2,65.0,55.7,48.9,41.9,39.0,35.5,74,54,34,30.01,29.88,13,2,14,0.00